Location: Ethel Rock
(53.4667°N, 4.5667°W)
Time: 05:17:08
(UTC+00:00)

CZ-2D R/B - Pass Details

Date: 24 October 2020
Orbit: 791 x 845 km, 98.7° (Epoch: 25 November)

Event Time Altitude Azimuth Distance (km) Brightness Sun altitude
Rises 04:32:18 0° 6° (N) 3,306 5.5 -22.9°
Reaches altitude 10° 04:36:08 10° 338° (NNW) 2,373 4.4 -22.3°
Enters shadow 04:36:47 11° 331° (NNW) 2,292 4.3 -22.2°
